232  
ASUS43 KFSD 241910  
RWRFSD  
 
WEATHER ROUNDUP FOR SE SOUTH DAKOTA/SW MINNESOTA/NW IOWA  
NATIONAL WEATHER SERVICE SIOUX FALLS SD  
100 PM CST SAT FEB 24 2018  
 
NOTE: "FAIR" INDICATES FEW OR NO CLOUDS BELOW 12,000 FEET WITH NO  
SIGNIFICANT WEATHER AND OR S TO VISIBILITY
.  
 
 
SDZ038>040-050-052>070-242000-  
SOUTHEAST SOUTH DAKOTA  
 
CITY SKY/WX TMP DP RH WIND PRES REMARKS
 
BROOKINGS LGT SNOW 22 17 81 E13 29.74F WCI 10  
CHAMBERLAIN CLOUDY 17 13 82 E8 29.74F WCI 7  
HURON SNOW 19 17 92 CALM 29.78F VSB 1/2  
MADISON LGT SNOW 19 19 100 E10 29.73F WCI 8  
MITCHELL CLOUDY 19 16 88 CALM 29.79F  
SIOUX FALLS LGT SNOW 20 17 88 E12 29.77F VSB 1 WCI 8  
WINNER CLOUDY 20 13 74 S7 29.70F WCI 11  
YANKTON CLOUDY 23 18 81 E9 29.78F WCI 13  

 
 
MNZ071-072-080-081-089-090-097-098-242000-  
SOUTHWEST MINNESOTA  
 
CITY SKY/WX TMP DP RH WIND PRES REMARKS
 
FAIRMONT LGT SNOW 21 18 86 N9 29.82F VSB 1 WCI 11  
JACKSON LGT SNOW 16 12 86 NE10 29.82F VSB 3/4 WCI 3  
LUVERNE LGT SNOW 21 18 86 E13 29.78F VSB 1 WCI 9  
MARSHALL LGT SNOW 13 8 81 NE8 29.86F WCI 2  
MONTEVIDEO LGT SNOW 16 12 86 CALM 29.91F  
PIPESTONE LGT SNOW 21 19 93 E9 29.73F VSB 1 WCI 11  
REDWOOD FALLS CLOUDY 19 16 88 E7 29.90F FOG WCI 10  
TRACY LGT SNOW 14 12 92 NE6 29.83F WCI 5  
WORTHINGTON LGT SNOW 19 17 92 NE14 29.79F VSB 3/4 WCI 6  

 
 
IAZ001>003-012>014-020>022-031-032-NEZ013-014-SDZ071-242000-  
NORTHWEST IOWA  
 
CITY SKY/WX TMP DP RH WIND PRES REMARKS
 
CHEROKEE LGT SNOW 24 23 95 E6 29.80F VSB 1 WCI 17  
DENISON FOG 28 28 100 CALM 29.78F VSB 3/4  
ESTHERVILLE LGT SNOW 20 16 84 N10 29.81F VSB 3/4 WCI 9  
LE MARS LGT SNOW 21 19 93 NE6 29.79F WCI 14  
ORANGE CITY LGT SNOW 21 21 100 E5 29.78F VSB 3/4 WCI 15  
SHELDON LGT SNOW 21 21 100 E14 29.77F VSB 1 WCI 8  
SIOUX CITY CLOUDY 24 19 81 NE5 29.80F WCI 18  
SPENCER LGT SNOW 24 18 77 NE13 29.79F VSB 3/4 WCI 12  
STORM LAKE FOG 23 23 100 MISG 29.77F VSB 1/2  

 
 
ABBREVIATIONS USED IN REMARKS  
TC - TEMPERATURE IN CELSIUS  
WCI - WIND CHILL INDEX  
HX - HEAT INDEX  
VSB - VISIBILITY  
 
 
 
CLICK HERE TO GO TO PREVIOUS BULLETINS.

The Nexlab SD Page
The Nexlab IA Page
The Nexlab MN Page
The Nexlab NE Page Main Text Page